• In Germany
  • List of Countries
  • For 7 days
  • Water Temperature
  • Satellite Maps
  • Weather Map
  • Weather Widgets
  • user-avatar
    Login

    Hourly Weather Paro

    Today, 26 May, Saturday

    Time Temperature Precipitation Wind Pressure Humidity
    00:00 +14°C° 0 mm 1 mps 561 mmHg 92%
    01:00 +14°C° 0 mm 1 mps 561 mmHg 91%
    02:00 +14°C° 0 mm 1 mps 561 mmHg 90%
    03:00 +14°C° 0 mm 1 mps 561 mmHg 89%
    04:00 +14°C° 0 mm 1 mps 561 mmHg 89%
    05:00 +13°C° 0 mm 0 mps 561 mmHg 88%
    06:00 +13°C° 0 mm 0 mps 561 mmHg 88%
    07:00 +15°C° 0 mm 1 mps 562 mmHg 83%
    08:00 +18°C° 0 mm 1 mps 563 mmHg 77%
    09:00 +18°C° 0 mm 2 mps 563 mmHg 72%
    10:00 +19°C° 0.2 mm 2 mps 563 mmHg 72%
    11:00 +19°C° 0.2 mm 2 mps 563 mmHg 71%
    12:00 +19°C° 0.2 mm 2 mps 563 mmHg 70%
    13:00 +19°C° 0.4 mm 2 mps 563 mmHg 71%
    14:00 +19°C° 0.4 mm 2 mps 562 mmHg 72%
    15:00 +19°C° 0.4 mm 2 mps 562 mmHg 73%
    16:00 +18°C° 0.3 mm 2 mps 562 mmHg 77%
    17:00 +18°C° 0.3 mm 2 mps 561 mmHg 81%
    18:00 +17°C° 0.3 mm 2 mps 561 mmHg 85%
    19:00 +16°C° 0.1 mm 1 mps 561 mmHg 87%
    20:00 +16°C° 0.1 mm 1 mps 562 mmHg 89%
    21:00 +15°C° 0.1 mm 1 mps 562 mmHg 91%
    22:00 +15°C° 0 mm 1 mps 562 mmHg 90%
    23:00 +15°C° 0 mm 1 mps 562 mmHg 89%

    Tomorrow, 27 May, Sunday

    Time Temperature Precipitation Wind Pressure Humidity
    00:00 +14°C° 0 mm 1 mps 562 mmHg 89%
    01:00 +14°C° 0.1 mm 1 mps 562 mmHg 89%
    02:00 +14°C° 0.1 mm 1 mps 562 mmHg 90%
    03:00 +14°C° 0.1 mm 1 mps 561 mmHg 90%
    04:00 +14°C° 0.3 mm 1 mps 562 mmHg 90%
    05:00 +14°C° 0.3 mm 1 mps 562 mmHg 90%
    06:00 +14°C° 0.3 mm 1 mps 562 mmHg 89%
    07:00 +15°C° 0.1 mm 1 mps 563 mmHg 85%
    08:00 +16°C° 0.1 mm 2 mps 563 mmHg 81%
    09:00 +17°C° 0.1 mm 2 mps 564 mmHg 76%
    10:00 +18°C° 0.2 mm 2 mps 564 mmHg 72%
    11:00 +19°C° 0.2 mm 2 mps 564 mmHg 68%
    12:00 +20°C° 0.2 mm 2 mps 564 mmHg 64%
    13:00 +20°C° 0.2 mm 3 mps 564 mmHg 66%
    14:00 +20°C° 0.2 mm 3 mps 563 mmHg 67%
    15:00 +20°C° 0.2 mm 3 mps 562 mmHg 68%
    16:00 +19°C° 0.2 mm 2 mps 562 mmHg 74%
    17:00 +18°C° 0.2 mm 2 mps 561 mmHg 79%
    18:00 +17°C° 0.2 mm 2 mps 561 mmHg 85%
    19:00 +16°C° 0.2 mm 2 mps 561 mmHg 88%
    20:00 +15°C° 0.2 mm 2 mps 561 mmHg 91%
    21:00 +15°C° 0.2 mm 2 mps 562 mmHg 94%
    22:00 +14°C° 0.1 mm 1 mps 562 mmHg 92%
    23:00 +14°C° 0.1 mm 1 mps 562 mmHg 91%

    Day after tomorrow, 28 May, Monday

    Time Temperature Precipitation Wind Pressure Humidity
    00:00 +14°C° 0.1 mm 1 mps 561 mmHg 90%
    01:00 +13°C° 0.1 mm 1 mps 561 mmHg 90%
    02:00 +13°C° 0.1 mm 1 mps 561 mmHg 90%
    03:00 +13°C° 0.1 mm 1 mps 560 mmHg 90%
    04:00 +13°C° 0.1 mm 1 mps 561 mmHg 89%
    05:00 +13°C° 0.1 mm 1 mps 561 mmHg 87%
    06:00 +13°C° 0.1 mm 1 mps 561 mmHg 86%
    07:00 +15°C° 0.2 mm 1 mps 562 mmHg 80%
    08:00 +16°C° 0.2 mm 2 mps 563 mmHg 73%
    09:00 +18°C° 0.2 mm 2 mps 564 mmHg 67%
    10:00 +19°C° 0.2 mm 2 mps 564 mmHg 64%
    11:00 +20°C° 0.2 mm 2 mps 564 mmHg 61%
    12:00 +21°C° 0.2 mm 2 mps 564 mmHg 58%
    13:00 +20°C° 0.5 mm 2 mps 563 mmHg 64%
    14:00 +19°C° 0.5 mm 2 mps 561 mmHg 70%
    15:00 +18°C° 0.5 mm 2 mps 560 mmHg 76%
    16:00 +17°C° 0.3 mm 2 mps 560 mmHg 79%
    17:00 +17°C° 0.3 mm 2 mps 560 mmHg 82%
    18:00 +16°C° 0.3 mm 2 mps 559 mmHg 84%
    19:00 +15°C° 0.1 mm 1 mps 560 mmHg 86%
    20:00 +14°C° 0.1 mm 1 mps 560 mmHg 89%
    21:00 +13°C° 0.1 mm 1 mps 560 mmHg 91%
    22:00 +13°C° 0 mm 1 mps 560 mmHg 90%
    23:00 +13°C° 0 mm 1 mps 560 mmHg 89%

    29 May, Tuesday

    Time Temperature Precipitation Wind Pressure Humidity
    00:00 +13°C° 0 mm 1 mps 560 mmHg 88%
    01:00 +12°C° 0 mm 1 mps 559 mmHg 87%
    02:00 +12°C° 0 mm 1 mps 559 mmHg 86%
    03:00 +12°C° 0 mm 1 mps 559 mmHg 85%
    04:00 +12°C° 0 mm 1 mps 559 mmHg 83%
    05:00 +13°C° 0 mm 1 mps 559 mmHg 81%
    06:00 +13°C° 0 mm 1 mps 559 mmHg 79%
    07:00 +15°C° 0 mm 1 mps 561 mmHg 72%
    08:00 +18°C° 0 mm 1 mps 562 mmHg 65%
    09:00 +19°C° 0 mm 2 mps 563 mmHg 57%
    10:00 +20°C° 0.1 mm 2 mps 563 mmHg 58%
    11:00 +20°C° 0.1 mm 2 mps 562 mmHg 59%
    12:00 +21°C° 0.1 mm 3 mps 562 mmHg 60%
    13:00 +20°C° 0.3 mm 3 mps 561 mmHg 63%
    14:00 +20°C° 0.3 mm 2 mps 561 mmHg 67%
    15:00 +19°C° 0.3 mm 2 mps 560 mmHg 71%
    16:00 +18°C° 0.2 mm 2 mps 559 mmHg 75%
    17:00 +17°C° 0.2 mm 2 mps 559 mmHg 79%
    18:00 +17°C° 0.2 mm 2 mps 559 mmHg 83%
    19:00 +16°C° 0.2 mm 2 mps 559 mmHg 86%
    20:00 +15°C° 0.2 mm 2 mps 559 mmHg 88%
    21:00 +14°C° 0.2 mm 2 mps 560 mmHg 91%
    22:00 +14°C° 0.1 mm 2 mps 560 mmHg 90%
    23:00 +14°C° 0.1 mm 2 mps 560 mmHg 90%

    30 May, Wednesday

    Time Temperature Precipitation Wind Pressure Humidity
    00:00 +14°C° 0.1 mm 2 mps 560 mmHg 89%
    01:00 +13°C° 0 mm 1 mps 560 mmHg 88%
    02:00 +13°C° 0 mm 1 mps 560 mmHg 88%
    03:00 +13°C° 0 mm 1 mps 559 mmHg 87%
    04:00 +13°C° 0 mm 1 mps 559 mmHg 86%
    05:00 +13°C° 0 mm 1 mps 560 mmHg 85%
    06:00 +13°C° 0 mm 1 mps 560 mmHg 84%
    07:00 +15°C° 0 mm 1 mps 561 mmHg 77%
    08:00 +18°C° 0 mm 1 mps 562 mmHg 71%
    09:00 +19°C° 0 mm 2 mps 563 mmHg 64%
    10:00 +19°C° 0.1 mm 2 mps 563 mmHg 65%
    11:00 +19°C° 0.1 mm 2 mps 563 mmHg 65%
    12:00 +20°C° 0.1 mm 2 mps 563 mmHg 65%
    13:00 +19°C° 0.1 mm 2 mps 562 mmHg 66%
    14:00 +19°C° 0.1 mm 3 mps 562 mmHg 68%
    15:00 +19°C° 0.1 mm 3 mps 561 mmHg 69%
    16:00 +18°C° 0.2 mm 2 mps 561 mmHg 75%
    17:00 +18°C° 0.2 mm 2 mps 561 mmHg 80%
    18:00 +17°C° 0.2 mm 2 mps 560 mmHg 86%
    19:00 +16°C° 0.2 mm 1 mps 561 mmHg 88%
    20:00 +15°C° 0.2 mm 1 mps 561 mmHg 90%
    21:00 +15°C° 0.2 mm 1 mps 562 mmHg 93%
    22:00 +15°C° 0.1 mm 1 mps 562 mmHg 92%
    23:00 +15°C° 0.1 mm 1 mps 562 mmHg 91%

    31 May, Thursday

    Time Temperature Precipitation Wind Pressure Humidity
    00:00 +14°C° 0.1 mm 1 mps 562 mmHg 90%
    01:00 +14°C° 0 mm 1 mps 562 mmHg 90%
    02:00 +14°C° 0 mm 1 mps 562 mmHg 89%
    03:00 +14°C° 0 mm 1 mps 562 mmHg 89%
    04:00 +14°C° 0 mm 1 mps 562 mmHg 88%
    05:00 +14°C° 0 mm 1 mps 562 mmHg 86%
    06:00 +14°C° 0 mm 1 mps 563 mmHg 85%
    07:00 +16°C° 0 mm 1 mps 564 mmHg 79%
    08:00 +19°C° 0 mm 1 mps 565 mmHg 73%
    09:00 +19°C° 0 mm 2 mps 566 mmHg 67%
    10:00 +20°C° 0.1 mm 2 mps 566 mmHg 67%
    11:00 +20°C° 0.1 mm 2 mps 566 mmHg 66%
    12:00 +21°C° 0.1 mm 2 mps 566 mmHg 66%
    13:00 +20°C° 0.2 mm 2 mps 565 mmHg 68%
    14:00 +20°C° 0.2 mm 2 mps 564 mmHg 71%
    15:00 +19°C° 0.2 mm 2 mps 563 mmHg 74%
    16:00 +19°C° 0.1 mm 2 mps 563 mmHg 77%
    17:00 +18°C° 0.1 mm 2 mps 563 mmHg 80%
    18:00 +19°C° 0.1 mm 1 mps 563 mmHg 83%
    19:00 +18°C° 0 mm 1 mps 563 mmHg 86%
    20:00 +16°C° 0 mm 1 mps 563 mmHg 89%
    21:00 +15°C° 0 mm 1 mps 563 mmHg 91%
    22:00 +15°C° 0.4 mm 1 mps 563 mmHg 91%
    23:00 +15°C° 0.4 mm 1 mps 563 mmHg 92%
    Show more